Ahilyanagari Ex 16325 Schedule, Route, Map - Indore to Trivandrum train
Must See India - Best Travel Guide to India
Home   |   Login   |   Register   |   Contact Us
 

Ahilyanagari Ex (16325)

Print
     

Service Days:

Monday

Classes:

AC 2 Tier (2A), AC 3 Tier (3A), Sleeper (SL)

Duration:

48h 50m

Station Arrival Departure Stop Time Distance Day
1 Indore (INDB) starts 04:40 pm Starts 0 km 1
2 Dewas (DWX) 05:16 pm 05:18 pm 2 min 39 km 1
3 Ujjain (UJN) 06:05 pm 06:20 pm 15 min 80 km 1
4 Shujalpur (SJP) 07:36 pm 07:38 pm 2 min 183 km 1
5 Bhopal (BPL) 09:10 pm 09:15 pm 5 min 263 km 1
6 Itarsi (ET) 11:05 pm 11:15 pm 10 min 355 km 1
7 Ghoradongri (GDYA) 12:07 am 12:09 am 2 min 425 km 2
8 Betul (BZU) 12:53 am 12:55 am 2 min 462 km 2
9 Amla Jn (AMLA) 01:19 am 01:22 am 3 min 484 km 2
10 Pandhurna (PAR) 02:23 am 02:25 am 2 min 548 km 2
11 Nagpur (NGP) 04:10 am 04:20 am 10 min 652 km 2
12 Sevagram (SEGM) 05:18 am 05:20 am 2 min 728 km 2
13 Hinganghat (HGT) 05:48 am 05:50 am 2 min 765 km 2
14 Chandrapur (CD) 06:56 am 06:58 am 2 min 849 km 2
15 Balharshah (BPQ) 08:05 am 08:35 am 30 min 863 km 2
16 Sirpur Kagazngr (SKZR) 09:24 am 09:26 am 2 min 933 km 2
17 Belampalli (BPA) 10:02 am 10:04 am 2 min 971 km 2
18 Mancheral (MCI) 10:18 am 10:20 am 2 min 991 km 2
19 Ramgundam (RDM) 10:28 am 10:30 am 2 min 1,005 km 2
20 Warangal (WL) 12:03 pm 12:05 pm 2 min 1,107 km 2
21 Khammam (KMT) 01:35 pm 01:37 pm 2 min 1,214 km 2
22 Vijayawada (BZA) 03:50 pm 04:05 pm 15 min 1,316 km 2
23 Tenali (TEL) 04:33 pm 04:35 pm 2 min 1,347 km 2
24 Chirala (CLX) 05:17 pm 05:19 pm 2 min 1,404 km 2
25 Ongole (OGL) 06:02 pm 06:04 pm 2 min 1,454 km 2
26 Nellore (NLR) 07:18 pm 07:20 pm 2 min 1,570 km 2
27 Guduru (GDR) 08:53 pm 08:55 pm 2 min 1,608 km 2
28 Chennai (MAS) 11:20 pm 11:45 pm 25 min 1,746 km 2
29 Katpadi (KPD) 01:45 am 01:50 am 5 min 1,875 km 3
30 Jolarpettai (JTJ) 03:15 am 03:20 am 5 min 1,959 km 3
31 Salem (SA) 04:45 am 04:50 am 5 min 2,079 km 3
32 Erode (ED) 06:05 am 06:15 am 10 min 2,141 km 3
33 Tirupur (TUP) 06:58 am 07:00 am 2 min 2,191 km 3
34 Coimbatore (CBE) 07:55 am 08:00 am 5 min 2,242 km 3
35 Palakkad (PGT) 09:05 am 09:10 am 5 min 2,296 km 3
36 Ottappalam (OTP) 09:38 am 09:40 am 2 min 2,328 km 3
37 Shoranur Jn (SRR) 10:20 am 10:30 am 10 min 2,341 km 3
38 Wadakancheri (WKI) 10:48 am 10:50 am 2 min 2,357 km 3
39 Thrissur (TCR) 11:17 am 11:20 am 3 min 2,373 km 3
40 Irinjalakuda (IJK) 11:43 am 11:45 am 2 min 2,397 km 3
41 Chalakkudi (CKI) 11:53 am 11:55 am 2 min 2,403 km 3
42 Angamaly (AFK) 12:08 pm 12:10 pm 2 min 2,419 km 3
43 Aluva (AWY) 12:20 pm 12:23 pm 3 min 2,428 km 3
45 Ernakulam (ERS) 01:10 pm 01:20 pm 10 min 2,447 km 3
46 Shertalai (SRTL) 01:58 pm 02:00 pm 2 min 2,481 km 3
47 Alleppey (ALLP) 02:32 pm 02:35 pm 3 min 2,504 km 3
48 Ambalapuzha (AMPA) 02:48 pm 02:50 pm 2 min 2,516 km 3
49 Haripad (HAD) 03:08 pm 03:10 pm 2 min 2,534 km 3
50 Kayankulam Jn (KYJ) 03:23 pm 03:25 pm 2 min 2,547 km 3
51 Kollam (QLN) 04:05 pm 04:10 pm 5 min 2,588 km 3
52 Trivandrum (TVC) 05:30 pm ends Ends 2,653 km 3

 

 Click to view map

You can drag the map with your mouse, and double-click to zoom.

People who viewed this page also viewed

 
Almora honeymoon packages from Pune
 
Andhra Pradesh packages from Kolkata
 
Bandipur National Park packages from Chennai
 
Chandigarh honeymoon packages from Mumbai
 
Jodhpur honeymoon packages from Delhi
 
Resorts near Pune
 
Tripura tour packages from Mumbai
 
West Bengal packages from Bangalore
 
dalhousie honeymoon package
 
mahabaleshwar honeymoon package from pune
 
mathura tour package
 
shimla manali tour package from delhi
 

Destinations

 
 

More

 
debug_temp: train_route : train:1703:Ahilyanagari Ex:Train